This demonstration page uses our WeatherBlox Daily Observations layout. Learn more.

Left ArrowRight Arrow

38.20091, -84.87328

Hourly Observations for July 5, 2019

Temp ( °F °C ) Dew Point ( °F °C ) Humidity (%) Winds ( mph kmh ) Pressure ( in mb ) Visibility ( mi km ) Precip ( " mm )
12:53 am 00:53 Clear 74 23.3 71 21.7 91 91 S 5 7 30.03 1017 10 16 0.00 0.00
1:53 am 01:53 Mostly Clear 73 22.8 71 21.7 94 94 Calm 30.03 1017 9 14 0.00 0.00
2:53 am 02:53 Clear 73 22.8 71 21.7 94 94 Calm 30.02 1017 8 13 0.00 0.00
3:11 am 03:11 Partly Cloudy with Mist and Fog 72 22.2 70 21.1 94 94 Calm 30.02 1017 4 6 0.00 0.00
3:53 am 03:53 Mostly Cloudy 72 22.2 70 21.1 94 94 SSW 3 6 30.03 1017 8 13 0.00 0.00
4:15 am 04:15 Cloudy with Mist and Fog 72 22.2 71 21.7 97 97 SSW 3 6 30.02 1017 2 3 0.00 0.00
4:27 am 04:27 Cloudy with Mist and Fog 72 22.2 71 21.7 97 97 WSW 6 9 30.03 1017 1 1 0.00 0.00
4:53 am 04:53 Mostly Cloudy with Fog 72 22.2 71 21.7 97 97 W 3 6 30.03 1017 1 1 0.00 0.00
5:53 am 05:53 Mostly Cloudy with Fog 72 22.2 71 21.7 97 97 Calm 30.05 1018 1 1 0.00 0.00
6:53 am 06:53 Mostly Cloudy with Fog 72 22.2 71 21.7 97 97 Calm 30.06 1018 0 0 0.00 0.00
7:30 am 07:30 Cloudy with Mist and Fog 72 22.2 71 21.7 97 97 Calm 30.06 1018 1 2 0.00 0.00
7:51 am 07:51 Cloudy with Mist and Fog 73 23 72 22 94 94 Calm 30.07 1018 2 3 0.00 0.00
7:53 am 07:53 Cloudy with Mist and Fog 73 22.8 71 21.7 94 94 Calm 30.08 1019 2 3 0.00 0.00
8:08 am 08:08 Cloudy with Mist and Fog 73 22.8 71 21.7 94 94 S 3 6 30.08 1019 3 4 0.00 0.00
8:16 am 08:16 Cloudy with Mist and Fog 73 22.8 71 21.7 94 94 SSW 5 7 30.08 1019 3 5 0.00 0.00
8:53 am 08:53 Cloudy 74 23.3 72 22.2 94 94 S 3 6 30.09 1019 7 11 0.00 0.00
9:20 am 09:20 Cloudy 75 23.9 72 22.2 90 90 Calm 30.08 1019 10 16 0.00 0.00
9:43 am 09:43 Partly Cloudy 77 25 72 22.2 85 85 Calm 30.08 1019 10 16 0.00 0.00
9:53 am 09:53 Partly Cloudy 79 26.1 73 22.8 82 82 E 5 7 30.08 1019 10 16 0.00 0.00
10:53 am 10:53 Sunny 82 27.8 72 22.2 72 72 SE 6 9 30.08 1019 10 16 0.00 0.00
11:53 am 11:53 Mostly Sunny 85 29.4 72 22.2 65 65 VRB 3 6 30.08 1019 10 16 0.00 0.00
12:53 pm 12:53 Sunny 86 30 71 21.7 61 61 VRB 5 7 30.08 1019 10 16 0.00 0.00
1:53 pm 13:53 Partly Cloudy 89 31.7 72 22.2 57 57 VRB 3 6 30.07 1018 10 16 0.00 0.00
2:53 pm 14:53 Sunny 90 32.2 72 22.2 56 56 SSW 7 11 30.04 1017 10 16 0.00 0.00
3:53 pm 15:53 Mostly Sunny 91 32.8 71 21.7 52 52 W 7 11 30.02 1017 10 16 0.00 0.00
5:53 pm 17:53 Sunny 91 32.8 70 21.1 50 50 VRB 6 9 30.00 1016 10 16 0.00 0.00
6:53 pm 18:53 Sunny 90 32.2 71 21.7 54 54 SSW 6 9 29.98 1015 10 16 0.00 0.00
7:53 pm 19:53 Sunny 86 30 71 21.7 61 61 SSW 5 7 29.99 1016 10 16 0.00 0.00
8:53 pm 20:53 Sunny 83 28.3 72 22.2 70 70 WSW 6 9 30.02 1017 10 16 0.00 0.00
9:53 pm 21:53 Clear 81 27.2 72 22.2 74 74 WSW 3 6 30.02 1017 10 16 0.00 0.00
10:53 pm 22:53 Clear 78 25.6 73 22.8 85 85 SW 5 7 30.03 1017 10 16 0.00 0.00
11:53 pm 23:53 Clear 77 25 72 22.2 85 85 SW 5 7 30.01 1016 10 16 0.00 0.00

Powered by AerisWeather